| time (UTC) | temp C | wind direction | speed KPH | gust KPH | rain 1hr cm | rain 24hr cm | rain mn cm | humidity % | barometer mb |
| 20260505041602 | 13 | 302 | 3.2 | 12.9 | 0.46 | 0.56 | 0.18 | 90 | 1002.1 |
| 20260505040055 | 13 | 9 | 4.8 | 19.3 | 0.38 | 0.38 | 0.00 | 89 | 1002.0 |
| 20260505034544 | 14 | 328 | 11.3 | 20.9 | 0.25 | 0.25 | 0.25 | 86 | 1003.0 |
| 20260505033046 | 15 | 21 | 12.9 | 24.1 | 0.15 | 0.15 | 0.15 | 82 | 1002.9 |
| 20260505031546 | 16 | 338 | 11.3 | 49.9 | 0.10 | 0.10 | 0.10 | 77 | 1002.9 |
| 20260505030043 | 20 | 346 | 8.0 | 17.7 | 0.00 | 0.00 | 0.00 | 55 | 1001.6 |
| 20260505024541 | 20 | 298 | 9.7 | 20.9 | 0.00 | 0.00 | 0.00 | 55 | 1000.8 |
| 20260505023044 | 20 | 288 | 9.7 | 17.7 | 0.00 | 0.00 | 0.00 | 57 | 1000.8 |
| 20260505021542 | 20 | 276 | 6.4 | 14.5 | 0.00 | 0.00 | 0.00 | 58 | 1000.6 |
| 20260505020039 | 20 | 263 | 8.0 | 14.5 | 0.00 | 0.00 | 0.00 | 58 | 1000.5 |
| 20260505014557 | 20 | 266 | 8.0 | 16.1 | 0.00 | 0.00 | 0.00 | 59 | 1000.4 |
| 20260505013040 | 20 | 276 | 6.4 | 11.3 | 0.00 | 0.00 | 0.00 | 61 | 1000.4 |
| 20260505011537 | 20 | 262 | 3.2 | 9.7 | 0.00 | 0.00 | 0.00 | 61 | 1000.1 |
| 20260505010036 | 20 | 253 | 3.2 | 12.9 | 0.00 | 0.00 | 0.00 | 59 | 999.9 |
| 20260505004540 | 21 | 272 | 8.0 | 19.3 | 0.00 | 0.00 | 0.00 | 58 | 999.9 |
| 20260505003035 | 21 | 295 | 11.3 | 22.5 | 0.00 | 0.00 | 0.00 | 59 | 1000.1 |
| 20260505001536 | 21 | 300 | 11.3 | 27.4 | 0.00 | 0.00 | 0.00 | 59 | 1000.1 |
| 20260505000040 | 21 | 285 | 9.7 | 27.4 | 0.00 | 0.00 | 0.00 | 59 | 1000.1 |
| 20260504234538 | 21 | 301 | 20.9 | 32.2 | 0.00 | 0.00 | 0.00 | 58 | 1000.0 |
| 20260504233033 | 22 | 274 | 20.9 | 38.6 | 0.00 | 0.00 | 0.00 | 57 | 999.8 |
| 20260504231536 | 22 | 288 | 17.7 | 30.6 | 0.00 | 0.00 | 0.00 | 57 | 1000.0 |
| 20260504230030 | 21 | 301 | 20.9 | 38.6 | 0.00 | 0.00 | 0.00 | 56 | 1000.4 |
| 20260504224530 | 22 | 288 | 20.9 | 45.1 | 0.00 | 0.00 | 0.00 | 53 | 1000.6 |
| 20260504223029 | 22 | 307 | 25.7 | 53.1 | 0.00 | 0.00 | 0.00 | 51 | 1000.9 |
| 20260504221534 | 22 | 294 | 25.7 | 51.5 | 0.00 | 0.00 | 0.00 | 48 | 1001.0 |
| 20260504220028 | 23 | 305 | 33.8 | 51.5 | 0.00 | 0.00 | 0.00 | 47 | 1000.9 |
| 20260504214527 | 23 | 340 | 22.5 | 46.7 | 0.00 | 0.00 | 0.00 | 48 | 1001.0 |
| 20260504213045 | 24 | 292 | 22.5 | 53.1 | 0.00 | 0.00 | 0.00 | 46 | 1000.8 |
| 20260504211526 | 23 | 300 | 29.0 | 46.7 | 0.00 | 0.00 | 0.00 | 46 | 1000.9 |
| 20260504210027 | 23 | 319 | 25.7 | 54.7 | 0.00 | 0.00 | 0.00 | 47 | 1000.6 |
| 20260504204524 | 23 | 285 | 24.1 | 56.3 | 0.00 | 0.00 | 0.00 | 45 | 1000.6 |
| 20260504203023 | 24 | 289 | 22.5 | 48.3 | 0.00 | 0.00 | 0.00 | 46 | 1000.7 |
| 20260504201526 | 24 | 352 | 24.1 | 46.7 | 0.00 | 0.00 | 0.00 | 45 | 1000.9 |
| 20260504200020 | 23 | 299 | 17.7 | 43.5 | 0.00 | 0.00 | 0.00 | 49 | 1001.0 |
| 20260504194519 | 24 | 290 | 22.5 | 46.7 | 0.00 | 0.00 | 0.00 | 49 | 1001.0 |
| 20260504193017 | 23 | 280 | 25.7 | 41.8 | 0.00 | 0.00 | 0.00 | 48 | 1001.1 |
| 20260504191515 | 23 | 288 | 27.4 | 46.7 | 0.00 | 0.00 | 0.00 | 48 | 1001.2 |
| 20260504190012 | 23 | 311 | 19.3 | 40.2 | 0.00 | 0.00 | 0.00 | 50 | 1001.5 |
| 20260504184514 | 23 | 332 | 22.5 | 41.8 | 0.00 | 0.00 | 0.00 | 50 | 1001.7 |
| 20260504183007 | 22 | 270 | 24.1 | 45.1 | 0.00 | 0.00 | 0.00 | 52 | 1001.8 |
| 20260504181506 | 22 | 302 | 24.1 | 40.2 | 0.00 | 0.00 | 0.00 | 52 | 1002.0 |
| 20260504180006 | 22 | 271 | 16.1 | 41.8 | 0.00 | 0.00 | 0.00 | 54 | 1002.1 |
| 20260504174617 | 22 | 296 | 16.1 | 32.2 | 0.00 | 0.00 | 0.00 | 55 | 1002.3 |
| 20260504173059 | 21 | 304 | 17.7 | 33.8 | 0.00 | 0.00 | 0.00 | 57 | 1002.5 |
| 20260504171555 | 21 | 308 | 19.3 | 33.8 | 0.00 | 0.00 | 0.00 | 57 | 1002.8 |
| 20260504081522 | 10 | 270 | 9.7 | 16.1 | 0.00 | 0.00 | 0.00 | 75 | 1006.1 |
| 20260504060104 | 10 | 288 | 9.7 | 17.7 | 0.00 | 0.00 | 0.00 | 77 | 1007.8 |
| 20260504044600 | 10 | 277 | 3.2 | 11.3 | 0.00 | 0.00 | 0.00 | 78 | 1008.6 |
| 20260504043049 | 10 | 280 | 4.8 | 9.7 | 0.00 | 0.00 | 0.00 | 79 | 1008.6 |